Retour au catalogue

STARLINK-31400

ActifCommunicationsVLEO
NORAD 59405·PAYLOAD·🇺🇸 United States

Lancé Apr 5, 2024 depuis Cape Canaveral Space Force Station

Loading…

Prochains Passages (prochaines 24 heures)

TLE

FraisSource: CelesTrak SupGP

Époque: Sep 14, 2026, 22:46 UTC

1 59405C 24064H   26257.94909722  .00053562  00000+0  19401-2 0  2577
2 59405  43.0024  67.0140 0001674 276.7905 105.8352 15.27549916    14

Suivez STARLINK-31400 en temps réel avec AllMySat

Download on the App Store